Hourly Weather Allende

Today, 1 December, Tuesday

Time Temperature Precipitation Wind Pressure Humidity
00:00 +21°C° 0 mm 7 mps 765 mmHg 95%
01:00 +21°C° 1.1 mm 7 mps 765 mmHg 95%
02:00 +21°C° 1.1 mm 7 mps 764 mmHg 95%
03:00 +21°C° 1.1 mm 7 mps 764 mmHg 95%
04:00 +21°C° 1.1 mm 7 mps 764 mmHg 95%
05:00 +21°C° 1.1 mm 6 mps 764 mmHg 94%
06:00 +21°C° 1.1 mm 6 mps 764 mmHg 94%
07:00 +21°C° 0.9 mm 5 mps 765 mmHg 94%
08:00 +21°C° 0.9 mm 4 mps 765 mmHg 94%
09:00 +21°C° 0.9 mm 4 mps 765 mmHg 94%
10:00 +21°C° 1.2 mm 3 mps 765 mmHg 94%
11:00 +21°C° 1.2 mm 3 mps 764 mmHg 95%
12:00 +21°C° 1.2 mm 3 mps 764 mmHg 95%
13:00 +20°C° 1.3 mm 3 mps 763 mmHg 96%
14:00 +20°C° 1.3 mm 3 mps 762 mmHg 96%
15:00 +20°C° 1.3 mm 3 mps 761 mmHg 97%
16:00 +20°C° 0.9 mm 3 mps 761 mmHg 97%
17:00 +21°C° 0.9 mm 3 mps 761 mmHg 97%
18:00 +21°C° 0.9 mm 2 mps 761 mmHg 97%
19:00 +21°C° 0.4 mm 2 mps 761 mmHg 97%
20:00 +21°C° 0.4 mm 3 mps 762 mmHg 97%
21:00 +20°C° 0.4 mm 3 mps 762 mmHg 97%
22:00 +20°C° 0.1 mm 3 mps 762 mmHg 97%
23:00 +20°C° 0.1 mm 2 mps 761 mmHg 97%

Tomorrow, 2 December, Wednesday

Time Temperature Precipitation Wind Pressure Humidity
00:00 +20°C° 0.1 mm 2 mps 761 mmHg 98%
01:00 +19°C° 0 mm 2 mps 760 mmHg 98%
02:00 +19°C° 0 mm 2 mps 760 mmHg 97%
03:00 +20°C° 0 mm 1 mps 759 mmHg 97%
04:00 +20°C° 0 mm 1 mps 759 mmHg 97%
05:00 +20°C° 0 mm 1 mps 759 mmHg 96%
06:00 +20°C° 0 mm 1 mps 760 mmHg 96%
07:00 +21°C° 0 mm 1 mps 760 mmHg 93%
08:00 +22°C° 0 mm 1 mps 761 mmHg 90%
09:00 +23°C° 0 mm 1 mps 761 mmHg 87%
10:00 +24°C° 0 mm 1 mps 761 mmHg 85%
11:00 +25°C° 0 mm 1 mps 761 mmHg 82%
12:00 +25°C° 0 mm 2 mps 760 mmHg 80%
13:00 +26°C° 0 mm 2 mps 760 mmHg 80%
14:00 +26°C° 0 mm 1 mps 759 mmHg 79%
15:00 +26°C° 0 mm 1 mps 758 mmHg 79%
16:00 +25°C° 0 mm 1 mps 758 mmHg 83%
17:00 +24°C° 0 mm 2 mps 759 mmHg 87%
18:00 +23°C° 0 mm 2 mps 759 mmHg 91%
19:00 +23°C° 0 mm 1 mps 759 mmHg 92%
20:00 +22°C° 0 mm 1 mps 760 mmHg 92%
21:00 +22°C° 0 mm 1 mps 760 mmHg 93%
22:00 +22°C° 0 mm 1 mps 760 mmHg 92%
23:00 +22°C° 0 mm 1 mps 760 mmHg 91%

Day after tomorrow, 3 December, Thursday

Time Temperature Precipitation Wind Pressure Humidity
00:00 +23°C° 0 mm 2 mps 760 mmHg 90%
01:00 +23°C° 0 mm 1 mps 760 mmHg 89%
02:00 +23°C° 0 mm 1 mps 759 mmHg 89%
03:00 +23°C° 0 mm 1 mps 759 mmHg 89%
04:00 +23°C° 0.1 mm 1 mps 759 mmHg 87%
05:00 +23°C° 0.1 mm 1 mps 759 mmHg 86%
06:00 +23°C° 0.1 mm 1 mps 760 mmHg 85%
07:00 +24°C° 0.1 mm 2 mps 760 mmHg 85%
08:00 +25°C° 0.1 mm 2 mps 761 mmHg 85%
09:00 +26°C° 0.1 mm 2 mps 761 mmHg 85%
10:00 +26°C° 0.2 mm 3 mps 761 mmHg 85%
11:00 +26°C° 0.2 mm 4 mps 761 mmHg 86%
12:00 +26°C° 0.2 mm 5 mps 761 mmHg 87%
13:00 +26°C° 0.3 mm 6 mps 760 mmHg 87%
14:00 +26°C° 0.3 mm 7 mps 760 mmHg 87%
15:00 +26°C° 0.3 mm 7 mps 759 mmHg 87%
16:00 +26°C° 0.1 mm 8 mps 759 mmHg 87%
17:00 +24°C° 0.1 mm 8 mps 760 mmHg 87%
18:00 +24°C° 0.1 mm 8 mps 760 mmHg 88%
19:00 +23°C° 0.3 mm 8 mps 761 mmHg 88%
20:00 +23°C° 0.3 mm 7 mps 761 mmHg 89%
21:00 +23°C° 0.3 mm 7 mps 762 mmHg 90%
22:00 +23°C° 0.6 mm 6 mps 762 mmHg 91%
23:00 +22°C° 0.6 mm 6 mps 762 mmHg 93%

4 December, Friday

Time Temperature Precipitation Wind Pressure Humidity
00:00 +22°C° 0.6 mm 5 mps 762 mmHg 94%
01:00 +22°C° 0.7 mm 5 mps 761 mmHg 94%
02:00 +22°C° 0.7 mm 6 mps 761 mmHg 95%
03:00 +22°C° 0.7 mm 6 mps 761 mmHg 95%
04:00 +22°C° 0.8 mm 6 mps 761 mmHg 95%
05:00 +22°C° 0.8 mm 6 mps 761 mmHg 95%
06:00 +22°C° 0.8 mm 6 mps 762 mmHg 95%
07:00 +22°C° 0.8 mm 7 mps 762 mmHg 94%
08:00 +23°C° 0.8 mm 8 mps 763 mmHg 93%
09:00 +23°C° 0.8 mm 8 mps 763 mmHg 92%
10:00 +23°C° 0.4 mm 9 mps 763 mmHg 91%
11:00 +22°C° 0.4 mm 9 mps 763 mmHg 90%
12:00 +22°C° 0.4 mm 9 mps 763 mmHg 88%
13:00 +22°C° 0.1 mm 9 mps 762 mmHg 87%
14:00 +22°C° 0.1 mm 9 mps 762 mmHg 86%
15:00 +22°C° 0.1 mm 9 mps 762 mmHg 85%
16:00 +22°C° 0.1 mm 9 mps 762 mmHg 84%
17:00 +22°C° 0.1 mm 9 mps 762 mmHg 83%
18:00 +22°C° 0.1 mm 9 mps 763 mmHg 81%
19:00 +22°C° 0 mm 8 mps 763 mmHg 81%
20:00 +22°C° 0 mm 8 mps 764 mmHg 80%
21:00 +22°C° 0 mm 8 mps 765 mmHg 80%
22:00 +21°C° 0.1 mm 7 mps 764 mmHg 83%
23:00 +21°C° 0.1 mm 6 mps 764 mmHg 86%

5 December, Saturday

Time Temperature Precipitation Wind Pressure Humidity
00:00 +20°C° 0.1 mm 6 mps 764 mmHg 89%
01:00 +20°C° 0.3 mm 6 mps 764 mmHg 89%
02:00 +20°C° 0.3 mm 5 mps 764 mmHg 90%
03:00 +20°C° 0.3 mm 5 mps 763 mmHg 91%
04:00 +20°C° 0.4 mm 5 mps 764 mmHg 91%
05:00 +20°C° 0.4 mm 5 mps 764 mmHg 91%
06:00 +20°C° 0.4 mm 6 mps 764 mmHg 92%
07:00 +20°C° 0.4 mm 6 mps 765 mmHg 92%
08:00 +21°C° 0.4 mm 6 mps 765 mmHg 92%
09:00 +21°C° 0.4 mm 6 mps 766 mmHg 92%
10:00 +21°C° 0.5 mm 6 mps 766 mmHg 92%
11:00 +21°C° 0.5 mm 5 mps 765 mmHg 92%
12:00 +21°C° 0.5 mm 5 mps 765 mmHg 92%
13:00 +21°C° 0.5 mm 5 mps 765 mmHg 91%
14:00 +21°C° 0.5 mm 5 mps 764 mmHg 91%
15:00 +21°C° 0.5 mm 5 mps 764 mmHg 91%
16:00 +21°C° 0.3 mm 5 mps 764 mmHg 91%
17:00 +21°C° 0.3 mm 6 mps 764 mmHg 91%
18:00 +21°C° 0.3 mm 6 mps 765 mmHg 91%
19:00 +21°C° 0.3 mm 5 mps 765 mmHg 91%
20:00 +21°C° 0.3 mm 5 mps 765 mmHg 91%
21:00 +21°C° 0.3 mm 5 mps 766 mmHg 91%
22:00 +20°C° 0.4 mm 5 mps 766 mmHg 92%
23:00 +20°C° 0.4 mm 4 mps 765 mmHg 92%

6 December, Sunday

Time Temperature Precipitation Wind Pressure Humidity
00:00 +20°C° 0.4 mm 4 mps 765 mmHg 92%
01:00 +20°C° 0.3 mm 4 mps 765 mmHg 92%
02:00 +20°C° 0.3 mm 4 mps 764 mmHg 92%
03:00 +20°C° 0.3 mm 4 mps 764 mmHg 92%
04:00 +20°C° 0.3 mm 4 mps 764 mmHg 92%
05:00 +20°C° 0.3 mm 4 mps 764 mmHg 92%
06:00 +19°C° 0.3 mm 4 mps 764 mmHg 93%
07:00 +20°C° 0.3 mm 4 mps 764 mmHg 92%
08:00 +20°C° 0.3 mm 3 mps 765 mmHg 92%
09:00 +20°C° 0.3 mm 3 mps 765 mmHg 92%
10:00 +20°C° 0.3 mm 3 mps 765 mmHg 91%
11:00 +21°C° 0.3 mm 3 mps 765 mmHg 90%
12:00 +21°C° 0.3 mm 3 mps 764 mmHg 89%
13:00 +22°C° 0.1 mm 3 mps 764 mmHg 88%
14:00 +22°C° 0.1 mm 3 mps 763 mmHg 86%
15:00 +24°C° 0.1 mm 3 mps 762 mmHg 85%
16:00 +22°C° 0 mm 3 mps 763 mmHg 84%
17:00 +21°C° 0 mm 4 mps 763 mmHg 84%
18:00 +21°C° 0 mm 4 mps 763 mmHg 84%
19:00 +21°C° 0 mm 4 mps 764 mmHg 84%
20:00 +21°C° 0 mm 4 mps 764 mmHg 83%
21:00 +21°C° 0 mm 4 mps 765 mmHg 83%
22:00 +21°C° 0.2 mm 3 mps 765 mmHg 84%
23:00 +20°C° 0.2 mm 3 mps 765 mmHg 86%
Show more